CW3175 Weather Reports


time (UTC)temp
F
wind
direction
speed
knots
gust
knots
rain 1hr
in
rain 24hr
in
rain mn
in
humidity
%
barometer
mb
20141126094724 22 219 0.0 0.0 0.00 0.01 0.00 81 1021.3
20141126093221 22 220 0.0 0.0 0.00 0.01 0.00 80 1021.6
20141126091702 23 220 0.0 0.0 0.00 0.01 0.00 80 1021.7
20141126090132 23 220 0.0 0.0 0.00 0.01 0.00 80 1021.8
20141126084632 23 220 0.0 0.0 0.00 0.01 0.00 80 1021.8
20141126083105 23 220 0.0 0.0 0.00 0.01 0.00 81 1021.7
20141126081533 23 220 0.0 0.0 0.00 0.01 0.00 81 1021.9
20141126080026 23 220 0.0 2.6 0.00 0.01 0.00 80 1021.8
20141126074500 23 234 0.0 4.3 0.00 0.01 0.00 80 1021.8
20141126073000 24 234 0.0 3.5 0.00 0.01 0.00 80 1021.8
20141126071459 24 226 0.0 5.2 0.00 0.01 0.00 80 1021.6
20141126065953 24 192 0.9 5.2 0.00 0.01 0.00 80 1021.5
20141126064451 24 237 0.9 5.2 0.00 0.01 0.00 80 1021.5
20141126062951 24 217 0.9 5.2 0.00 0.01 0.00 80 1021.4
20141126061437 24 188 1.7 7.8 0.00 0.01 0.00 80 1021.5
20141126055933 23 173 2.6 8.7 0.00 0.01 0.01 79 1021.8
20141126054431 24 204 0.9 5.2 0.00 0.01 0.01 80 1022.0
20141126052902 23 167 0.9 6.1 0.00 0.01 0.01 79 1022.1
20141126051403 24 221 0.9 6.1 0.00 0.01 0.01 80 1022.2
20141126045851 24 179 0.0 6.1 0.00 0.01 0.01 79 1022.3
20141126044344 23 178 2.6 7.8 0.00 0.01 0.01 79 1022.6
20141126042843 23 180 3.5 7.0 0.00 0.01 0.01 78 1022.6
20141126041340 23 156 2.6 7.8 0.00 0.01 0.01 78 1022.7
20141126035841 24 223 0.0 4.3 0.00 0.01 0.01 80 1022.6
20141126034335 24 167 1.7 5.2 0.00 0.01 0.01 78 1022.6
20141126032837 24 200 0.9 6.1 0.00 0.01 0.01 77 1022.5
20141126031302 23 194 0.9 3.5 0.00 0.01 0.01 77 1022.5
20141126025803 23 192 0.0 3.5 0.00 0.01 0.01 77 1022.3
20141126024245 23 194 0.0 3.5 0.00 0.01 0.01 77 1022.2
20141126022726 23 193 0.0 3.5 0.00 0.01 0.01 76 1022.1
20141126021221 23 216 0.9 4.3 0.00 0.01 0.01 76 1021.7
20141126015721 23 225 0.0 2.6 0.00 0.01 0.01 75 1021.7
20141126014202 24 223 0.9 4.3 0.00 0.01 0.01 75 1021.7
20141126012638 24 259 0.0 3.5 0.00 0.01 0.01 74 1021.6
20141126011126 24 277 0.0 3.5 0.00 0.01 0.01 74 1021.6
20141126005623 24 280 0.9 5.2 0.00 0.01 0.01 73 1021.6
20141126004124 24 268 0.9 5.2 0.00 0.01 0.01 73 1021.6
20141126002622 24 223 0.9 5.2 0.00 0.01 0.01 73 1021.7
20141126001112 25 216 0.9 4.3 0.00 0.01 0.01 73 1021.5
20141125235542 25 234 1.7 5.2 0.00 0.01 0.01 73 1021.4
20141125234027 25 201 0.9 5.2 0.00 0.01 0.01 72 1021.1
20141125232521 25 244 0.9 5.2 0.00 0.01 0.01 72 1021.1
20141125231020 25 247 0.9 5.2 0.00 0.01 0.01 72 1020.9
20141125225522 25 265 0.9 5.2 0.00 0.01 0.01 71 1020.7
20141125224020 25 265 0.9 7.8 0.00 0.01 0.01 71 1020.7
20141125222518 25 267 1.7 7.8 0.00 0.01 0.01 70 1020.6
20141125221012 26 244 0.9 9.6 0.00 0.01 0.01 69 1020.5
20141125215513 26 279 1.7 7.8 0.00 0.01 0.01 69 1020.5
20141125214013 26 267 2.6 8.7 0.00 0.01 0.01 68 1020.5
20141125212513 27 240 1.7 8.7 0.00 0.01 0.01 66 1020.4
20141125211014 28 261 1.7 9.6 0.00 0.01 0.01 64 1020.4
20141125205512 28 282 2.6 11.3 0.00 0.01 0.01 65 1020.2
20141125204010 28 242 2.6 8.7 0.00 0.01 0.01 64 1020.0
20141125202508 28 241 2.6 8.7 0.00 0.01 0.01 64 1019.9
20141125201006 29 263 2.6 9.6 0.00 0.01 0.01 63 1019.7
20141125195503 29 216 3.5 12.2 0.00 0.01 0.01 64 1019.4
20141125194002 29 197 4.3 11.3 0.00 0.02 0.01 62 1019.4
20141125192500 30 251 2.6 10.4 0.00 0.03 0.01 60 1018.9
20141125191000 30 241 2.6 9.6 0.00 0.04 0.01 65 1018.7
20141125185501 29 262 2.6 9.6 0.01 0.04 0.01 61 1018.7
20141125184001 30 243 2.6 11.3 0.01 0.05 0.01 61 1018.6
20141125182459 29 264 2.6 9.6 0.01 0.06 0.01 62 1018.4
20141125181000 29 269 2.6 9.6 0.01 0.07 0.01 63 1018.4
20141125175459 29 254 2.6 8.7 0.00 0.06 0.00 64 1018.2
20141125173954 29 286 1.7 7.8 0.00 0.06 0.00 65 1018.3
20141125172449 29 271 1.7 8.7 0.00 0.06 0.00 67 1018.6
20141125170941 28 287 0.9 8.7 0.00 0.06 0.00 67 1018.6
20141125165437 28 273 0.9 8.7 0.00 0.07 0.00 68 1018.6
20141125163933 27 338 0.9 7.8 0.00 0.07 0.00 70 1018.8
20141125162433 26 254 1.7 8.7 0.00 0.09 0.00 72 1018.7
20141125160931 25 254 3.5 11.3 0.00 0.11 0.00 72 1018.3
20141125155430 25 254 2.6 10.4 0.00 0.13 0.00 73 1018.1
20141125153928 25 254 4.3 13.9 0.00 0.15 0.00 73 1017.8
20141125152429 24 253 3.5 13.0 0.00 0.17 0.00 74 1017.7
20141125150923 24 254 3.5 13.0 0.00 0.19 0.00 75 1017.7
20141125145421 24 254 4.3 12.2 0.00 0.20 0.00 76 1017.3
20141125143918 24 253 2.6 11.3 0.00 0.22 0.00 78 1017.1
20141125142418 24 254 2.6 9.6 0.00 0.24 0.00 78 1016.8
20141125140919 24 253 2.6 11.3 0.00 0.25 0.00 78 1016.6
20141125135418 23 253 2.6 11.3 0.00 0.29 0.00 79 1016.3
20141125133913 23 253 3.5 11.3 0.00 0.33 0.00 80 1016.1
20141125132413 23 253 3.5 10.4 0.00 0.34 0.00 80 1015.8
20141125130915 23 253 1.7 12.2 0.00 0.34 0.00 80 1015.5
20141125125412 23 254 2.6 13.0 0.00 0.34 0.00 80 1015.5
20141125123911 23 253 3.5 13.0 0.00 0.34 0.00 78 1015.2
20141125122408 23 253 2.6 13.0 0.00 0.34 0.00 80 1015.0
20141125120908 23 254 1.7 10.4 0.00 0.34 0.00 81 1014.7
20141125115407 23 254 2.6 11.3 0.00 0.34 0.00 81 1014.5
20141125113905 23 253 2.6 13.9 0.00 0.34 0.00 81 1014.1
20141125112405 22 254 4.3 12.2 0.00 0.35 0.00 81 1013.9
20141125110904 23 253 2.6 11.3 0.00 0.35 0.00 83 1013.6
20141125105403 24 253 3.5 13.0 0.00 0.35 0.00 80 1013.3
20141125103901 24 253 1.7 10.4 0.00 0.35 0.00 76 1013.0
20141125102400 24 253 3.5 12.2 0.00 0.35 0.00 74 1012.7
20141125100857 24 254 2.6 11.3 0.00 0.35 0.00 73 1012.2